KQ7A Weather Reports


time (UTC)temp
C
wind
direction
speed
KPH
gust
KPH
rain 1hr
cm
rain 24hr
cm
rain mn
cm
humidity
%
barometer
mb
20260503070238 10 245 0.0 0.0 0.00 0.03 0.03 81 1017.1
20260503060157 11 184 0.0 0.0 0.00 0.03 0.03 78 1017.0
20260503054644 11 183 0.0 0.0 0.00 0.03 0.03 77 1016.9
20260503054141 11 183 0.0 0.0 0.00 0.03 0.03 78 1017.0
20260503053639 11 186 0.0 0.0 0.00 0.03 0.03 78 1017.1
20260503053138 11 183 0.0 1.6 0.00 0.03 0.03 78 1017.1
20260503052634 11 198 0.0 1.6 0.00 0.03 0.03 77 1017.1
20260503052130 11 198 0.0 0.0 0.00 0.03 0.03 77 1017.1
20260503051625 10 199 0.0 1.6 0.00 0.03 0.03 78 1017.1
20260503051124 11 211 0.0 0.0 0.00 0.03 0.03 79 1017.3
20260503050620 10 218 1.6 1.6 0.00 0.03 0.03 78 1017.4
20260503050117 10 230 0.0 0.0 0.00 0.03 0.03 81 1017.5
20260503045614 10 242 1.6 1.6 0.18 0.03 0.03 80 1017.4
20260503045111 11 232 0.0 0.0 0.18 0.03 0.03 78 1017.1
20260503044608 11 248 0.0 0.0 0.00 0.00 0.00 79 1017.0
20260503044106 11 238 0.0 0.0 0.00 0.00 0.00 80 1017.0
20260503043601 10 263 3.2 3.2 0.00 0.00 0.00 81 1017.0
20260503043058 11 247 0.0 0.0 0.00 0.00 0.00 80 1016.8
20260503042555 11 321 1.6 1.6 0.00 0.00 0.00 81 1016.6
20260503042051 11 241 0.0 0.0 0.00 0.00 0.00 82 1016.7
20260503041548 11 241 0.0 0.0 0.00 0.00 0.00 82 1016.4
20260503041046 11 241 0.0 0.0 0.00 0.00 0.00 81 1016.4
20260503040543 11 247 0.0 0.0 0.00 0.00 0.00 80 1016.3
20260503040040 11 261 1.6 1.6 0.00 0.00 0.00 77 1016.3
20260503035537 12 256 3.2 4.8 0.00 0.00 0.00 82 1016.3
20260503035035 13 249 0.0 0.0 0.00 0.00 0.00 73 1016.3
20260503034532 13 304 1.6 1.6 0.00 0.00 0.00 63 1016.2
20260503034029 13 256 1.6 1.6 0.00 0.00 0.00 62 1016.3
20260503033526 14 275 1.6 1.6 0.00 0.00 0.00 60 1016.0
20260503033024 14 252 0.0 0.0 0.00 0.00 0.00 57 1016.0
20260503032522 15 2 0.0 0.0 0.00 0.00 0.00 55 1016.0
20260503032020 15 348 0.0 0.0 0.00 0.00 0.00 53 1015.9
20260503031517 15 337 0.0 0.0 0.00 0.00 0.00 49 1015.9
20260503031014 16 314 1.6 1.6 0.00 0.00 0.00 47 1015.6
20260503030510 16 312 6.4 8.0 0.00 0.00 0.00 46 1015.5
20260503030008 15 280 6.4 8.0 0.00 0.00 0.00 47 1015.5
20260503025504 15 256 1.6 3.2 0.00 0.00 0.00 50 1015.4
20260503025002 15 287 11.3 14.5 0.00 0.00 0.00 48 1015.5
20260503024458 15 306 8.0 11.3 0.00 0.00 0.00 49 1015.6
20260503023955 15 332 8.0 9.7 0.00 0.00 0.00 49 1015.4
20260503023452 15 331 4.8 4.8 0.00 0.00 0.00 50 1015.3
20260503022949 15 258 3.2 3.2 0.00 0.00 0.00 54 1015.3
20260503022444 16 292 0.0 1.6 0.00 0.00 0.00 53 1015.1
20260503021940 16 323 0.0 0.0 0.00 0.00 0.00 52 1015.0
20260503021436 17 323 0.0 0.0 0.00 0.00 0.00 45 1014.8
20260503020934 17 327 1.6 1.6 0.00 0.00 0.00 41 1014.8
20260503020432 17 275 3.2 4.8 0.00 0.00 0.00 41 1014.7
20260503015928 17 252 1.6 1.6 0.00 0.00 0.00 41 1015.1
20260503015425 17 270 1.6 1.6 0.00 0.00 0.00 42 1015.0
20260503014921 17 326 1.6 1.6 0.00 0.00 0.00 40 1015.0
20260503014418 17 349 4.8 4.8 0.00 0.00 0.00 41 1014.8
20260503013916 17 338 4.8 4.8 0.00 0.00 0.00 42 1014.8
20260503013413 17 348 6.4 8.0 0.00 0.00 0.00 41 1015.1
20260503012910 17 297 1.6 3.2 0.00 0.00 0.00 43 1015.0
20260503012408 17 316 6.4 8.0 0.00 0.00 0.00 41 1014.8
20260503011904 17 342 0.0 1.6 0.00 0.00 0.00 43 1014.8
20260503011401 17 264 8.0 11.3 0.00 0.00 0.00 42 1014.6
20260503010858 18 244 8.0 11.3 0.00 0.00 0.00 42 1014.4
20260503010354 18 8 3.2 4.8 0.00 0.00 0.00 36 1013.9
20260503005851 18 349 4.8 4.8 0.00 0.00 0.00 37 1013.9
20260503005349 18 0 4.8 8.0 0.00 0.00 0.00 40 1013.6
20260503004845 20 26 9.7 12.9 0.00 0.00 0.00 40 1013.5
20260503004342 20 339 4.8 4.8 0.00 0.00 0.00 34 1013.6
20260503003840 20 97 3.2 4.8 0.00 0.00 0.00 33 1013.9
20260503003337 20 242 8.0 9.7 0.00 0.00 0.00 33 1013.8
20260503002833 20 126 12.9 14.5 0.00 0.00 0.00 33 1013.8
20260503002331 20 160 17.7 22.5 0.00 0.00 0.00 32 1013.9
20260503001827 20 142 6.4 8.0 0.00 0.00 0.00 34 1013.6
20260503001323 20 150 8.0 11.3 0.00 0.00 0.00 34 1013.7
20260503000821 20 143 4.8 4.8 0.00 0.00 0.00 33 1013.8
20260503000319 20 179 4.8 9.7 0.00 0.00 0.00 30 1013.6
20260502235815 20 175 6.4 9.7 0.00 0.00 0.00 32 1013.8
20260502235313 20 160 1.6 3.2 0.00 0.00 0.00 30 1013.9
20260502234809 20 198 4.8 8.0 0.00 0.00 0.00 32 1013.9
20260502234306 20 114 3.2 3.2 0.00 0.00 0.00 30 1014.1
20260502233802 20 180 9.7 11.3 0.00 0.00 0.00 31 1014.0
20260502233259 20 144 8.0 9.7 0.00 0.00 0.00 32 1014.4
20260502232755 20 124 19.3 25.7 0.00 0.00 0.00 32 1014.4
20260502232252 20 142 8.0 8.0 0.00 0.00 0.00 33 1014.4
20260502231749 20 157 24.1 29.0 0.00 0.00 0.00 31 1014.7
20260502231246 20 129 16.1 17.7 0.00 0.00 0.00 31 1014.6
20260502230745 20 157 12.9 16.1 0.00 0.00 0.00 30 1014.5
20260502230243 20 182 14.5 17.7 0.00 0.00 0.00 30 1014.5
20260502225739 20 113 17.7 27.4 0.00 0.00 0.00 31 1014.4
20260502225236 21 163 20.9 24.1 0.00 0.00 0.00 29 1014.6
20260502224732 21 160 14.5 20.9 0.00 0.00 0.00 31 1014.8
20260502224229 21 117 1.6 1.6 0.00 0.00 0.00 29 1014.5
20260502223726 21 142 8.0 11.3 0.00 0.00 0.00 31 1014.8
20260502223224 21 180 11.3 12.9 0.00 0.00 0.00 29 1014.8
20260502222722 21 150 11.3 14.5 0.00 0.00 0.00 32 1014.8
20260502222218 22 143 16.1 22.5 0.00 0.00 0.00 29 1014.8
20260502221714 21 188 9.7 12.9 0.00 0.00 0.00 29 1014.6
20260502221211 22 266 9.7 14.5 0.00 0.00 0.00 30 1014.8
20260502220707 21 145 17.7 24.1 0.00 0.00 0.00 27 1015.0
20260502220204 21 205 3.2 4.8 0.00 0.00 0.00 29 1015.1
20260502215701 21 179 9.7 12.9 0.00 0.00 0.00 29 1015.2
20260502215157 22 101 11.3 14.5 0.00 0.00 0.00 29 1015.3
20260502214655 22 207 4.8 4.8 0.00 0.00 0.00 29 1015.1
20260502214152 22 170 6.4 8.0 0.00 0.00 0.00 26 1015.3
20260502213649 22 225 6.4 8.0 0.00 0.00 0.00 29 1015.4
20260502213146 22 195 3.2 3.2 0.00 0.00 0.00 30 1015.3
20260502212645 22 182 6.4 11.3 0.00 0.00 0.00 29 1015.4
20260502212143 21 243 8.0 11.3 0.00 0.00 0.00 27 1015.6
20260502211638 22 273 8.0 11.3 0.00 0.00 0.00 28 1015.5
20260502211135 21 193 6.4 8.0 0.00 0.00 0.00 29 1015.8
20260502210633 21 229 3.2 4.8 0.00 0.00 0.00 29 1015.6
20260502210130 21 226 29.0 37.0 0.00 0.00 0.00 27 1016.0
20260502205627 21 173 14.5 16.1 0.00 0.00 0.00 27 1016.0
20260502205123 21 232 4.8 8.0 0.00 0.00 0.00 29 1015.9
20260502204620 21 122 0.0 1.6 0.00 0.00 0.00 29 1015.9
20260502204118 21 169 11.3 16.1 0.00 0.00 0.00 28 1016.0
20260502203615 21 188 16.1 17.7 0.00 0.00 0.00 30 1015.9
20260502203113 21 148 11.3 14.5 0.00 0.00 0.00 32 1016.1
20260502202607 20 160 11.3 14.5 0.00 0.00 0.00 37 1015.6
20260502202106 20 266 6.4 9.7 0.00 0.00 0.00 36 1015.9
20260502201556 20 0 4.8 4.8 0.00 0.00 0.00 37 1015.9
20260502201053 20 356 6.4 9.7 0.00 0.00 0.00 39 1015.9
20260502200548 20 65 6.4 8.0 0.00 0.00 0.00 38 1016.1
20260502200047 20 357 3.2 3.2 0.00 0.00 0.00 36 1016.0
20260502195544 20 91 0.0 0.0 0.00 0.00 0.00 38 1016.2
20260502195040 20 350 4.8 4.8 0.00 0.00 0.00 35 1016.1
20260502194537 20 340 4.8 4.8 0.00 0.00 0.00 38 1016.3
20260502194033 20 4 8.0 11.3 0.00 0.00 0.00 35 1016.3
20260502193530 20 23 6.4 9.7 0.00 0.00 0.00 40 1016.6
20260502193027 20 104 0.0 1.6 0.00 0.00 0.00 44 1016.7
20260502192522 19 21 6.4 8.0 0.00 0.00 0.00 38 1016.7
20260502192020 18 63 3.2 4.8 0.00 0.00 0.00 43 1016.4
20260502191517 18 70 1.6 1.6 0.00 0.00 0.00 44 1016.7
20260502191015 18 28 3.2 4.8 0.00 0.00 0.00 47 1016.8
20260502190512 18 92 3.2 3.2 0.00 0.00 0.00 46 1016.9
20260502190009 17 34 1.6 3.2 0.00 0.00 0.00 50 1016.9
20260502185504 17 49 1.6 3.2 0.00 0.00 0.00 49 1016.9
20260502185000 17 85 0.0 1.6 0.00 0.00 0.00 51 1016.8
20260502184450 17 6 4.8 4.8 0.00 0.00 0.00 48 1016.8
20260502183947 17 8 3.2 3.2 0.00 0.00 0.00 52 1017.0
20260502183443 17 116 0.0 0.0 0.00 0.00 0.00 51 1017.0
20260502182938 17 30 3.2 3.2 0.00 0.00 0.00 47 1017.0
20260502182434 17 58 0.0 0.0 0.00 0.00 0.00 51 1017.4
20260502181931 16 26 1.6 1.6 0.00 0.00 0.00 53 1017.4
20260502181429 16 40 3.2 3.2 0.00 0.00 0.00 52 1017.4
20260502180927 16 118 0.0 1.6 0.00 0.00 0.00 54 1017.3
20260502180424 16 29 1.6 1.6 0.00 0.00 0.00 48 1017.5
20260502170343 13 30 0.0 0.0 0.00 0.00 0.00 56 1017.6
20260502164330 13 43 1.6 1.6 0.00 0.00 0.00 56 1017.5
20260502163826 13 82 1.6 3.2 0.00 0.00 0.00 59 1017.7
20260502163322 13 48 1.6 1.6 0.00 0.00 0.00 60 1017.6
20260502162820 13 122 3.2 3.2 0.00 0.00 0.00 56 1017.6
20260502162317 14 158 0.0 0.0 0.00 0.00 0.00 54 1017.6
20260502161814 13 155 0.0 0.0 0.00 0.00 0.00 52 1017.5
20260502161309 13 152 0.0 1.6 0.00 0.00 0.00 54 1017.7
20260502160807 13 68 1.6 1.6 0.00 0.00 0.00 55 1017.5
20260502160301 12 140 0.0 1.6 0.00 0.00 0.00 56 1017.6
20260502152229 11 160 0.0 0.0 0.00 0.00 0.00 61 1017.5
20260502151727 10 133 0.0 0.0 0.00 0.00 0.00 64 1017.6
20260502151224 10 132 0.0 0.0 0.00 0.00 0.00 63 1017.5
20260502150722 10 132 0.0 0.0 0.00 0.00 0.00 63 1017.6
20260502150218 10 255 1.6 1.6 0.00 0.00 0.00 63 1017.6
20260502130607 6 239 0.0 0.0 0.00 0.00 0.00 67 1016.9
20260502130105 6 292 1.6 1.6 0.00 0.00 0.00 65 1016.8
20260502123550 6 222 0.0 0.0 0.00 0.00 0.00 64 1016.8
20260502123046 6 213 0.0 0.0 0.00 0.00 0.00 63 1016.9
20260502122543 6 218 0.0 0.0 0.00 0.00 0.00 62 1016.6
20260502122040 6 220 0.0 0.0 0.00 0.00 0.00 62 1016.7
20260502121538 7 203 0.0 0.0 0.00 0.00 0.00 59 1016.7
20260502121035 7 246 1.6 1.6 0.00 0.00 0.00 58 1016.7
20260502120531 7 244 0.0 0.0 0.00 0.00 0.00 58 1016.6
20260502115526 7 274 1.6 3.2 0.00 0.00 0.00 58 1016.8
20260502115022 7 259 3.2 3.2 0.00 0.00 0.00 56 1016.9
20260502114519 7 228 0.0 0.0 0.00 0.00 0.00 57 1016.9
20260502114015 7 174 0.0 0.0 0.00 0.00 0.00 61 1016.8
20260502113513 7 286 6.4 8.0 0.00 0.00 0.00 58 1016.9
20260502113012 7 270 4.8 4.8 0.00 0.00 0.00 60 1016.9
20260502112509 7 287 1.6 1.6 0.00 0.00 0.00 58 1016.8
20260502112006 7 221 0.0 1.6 0.00 0.00 0.00 58 1017.0
20260502111504 7 277 3.2 3.2 0.00 0.00 0.00 58 1016.9
20260502111001 7 208 0.0 0.0 0.00 0.00 0.00 60 1016.9
20260502110458 8 272 0.0 0.0 0.00 0.00 0.00 55 1016.9
20260502105955 8 229 0.0 0.0 0.00 0.00 0.00 56 1016.6
20260502105453 7 221 0.0 0.0 0.00 0.00 0.00 58 1016.9
20260502104950 7 213 0.0 0.0 0.00 0.00 0.00 58 1016.7
20260502104447 8 270 0.0 0.0 0.00 0.00 0.00 55 1016.8
20260502103945 8 225 0.0 0.0 0.00 0.00 0.00 53 1016.7
20260502103442 8 253 0.0 0.0 0.00 0.00 0.00 52 1016.7
20260502102939 8 277 0.0 0.0 0.00 0.00 0.00 52 1016.8
20260502102436 7 246 0.0 0.0 0.00 0.00 0.00 55 1016.8
20260502101933 8 274 0.0 0.0 0.00 0.00 0.00 55 1016.9
20260502101431 7 258 0.0 0.0 0.00 0.00 0.00 56 1016.7
20260502100929 7 250 1.6 3.2 0.00 0.00 0.00 61 1016.9
20260502100428 7 213 0.0 0.0 0.00 0.00 0.00 62 1016.8
20260502091402 7 246 0.0 1.6 0.00 0.00 0.00 59 1017.3
20260502090859 7 279 1.6 1.6 0.00 0.00 0.00 58 1017.4
20260502090356 8 283 0.0 0.0 0.00 0.00 0.00 65 1017.4
20260502071251 10 298 1.6 1.6 0.00 0.00 0.00 56 1017.7
20260502070749 9 277 1.6 1.6 0.00 0.00 0.00 55 1017.7